Location: Ariel
(45.9570°N, 122.5700°W)
Time: 10:36:16
(UTC-07:00)

Transit 2A Rocket - Pass Details

Date: 19 July 2019
Orbit: 590 x 913 km, 66.7° (Epoch: 24 August)

Event Time Altitude Azimuth Distance (km) Brightness Sun altitude
Exits shadow 02:59:43 - 143° (SE) 2,974 7.8 -19.2°
Reaches altitude 10° 03:01:43 10° 128° (SE) 2,565 7.6 -19.1°
Maximum altitude 03:04:14 13° 103° (ESE) 2,339 7.6 -18.9°
Drops below altitude 10° 03:06:43 10° 78° (ENE) 2,517 8.2 -18.7°
Sets 03:10:36 0° 51° (NE) 3,398 9.6 -18.4°
